Regional Weather Roundup
Issued by NWS

Home | Current Version | Previous Version | Text Only | Print | Product List | Glossary On
Versions: 1 2 3 4 5 6 7 8 9 10 11 12 13 14 15 16 17 18 19 20 21 22 23 24 25 26 27 28 29 30 31 32 33 34 35 36 37 38 39 40 41 42 43 44 45 46 47 48 49 50
000
ASUS43 KMKX 281841
RWRWI

WISCONSIN REGIONAL WEATHER ROUNDUP
NATIONAL WEATHER SERVICE MILWAUKEE/SULLIVAN WI
200 PM CDT THU MAY 28 2015

NOTE: "FAIR" INDICATES FEW OR NO CLOUDS BELOW 12,000 FEET WITH NO
SIGNIFICANT WEATHER AND/OR OBSTRUCTIONS TO VISIBILITY.

WIZ001-002-006>008-014>016-023>028-282000-
NORTHWEST WISCONSIN

CITY           SKY/WX    TMP DP  RH WIND       PRES   REMARKS
SUPERIOR ARPT  CLOUDY    44  42  91 NE12      30.10F
ASHLAND        MOSUNNY   60  52  74 N8        30.07F
HAYWARD        SUNNY     82  52  35 S16G22    30.05F HX  81
SIREN          MOSUNNY   83  51  32 SW12G17   30.03F HX  82
CUMBERLAND     SUNNY     79  50  36 SW17      30.06F
RICE LAKE      SUNNY     82  51  33 S13G20    30.07F HX  81
CHETEK         SUNNY     82  56  40 S9        30.07S HX  81
LADYSMITH      MOSUNNY   81  55  41 S13G18    30.09F HX  81
EAU CLAIRE     SUNNY     83  52  34 S20       30.07F HX  82
MENOMONIE      SUNNY     81  57  44 S9        30.07F HX  81
NEW RICHMOND   SUNNY     80  55  41 S12G17    30.05F HX  80
OSCEOLA        SUNNY     82  54  38 SW13G21   30.06F HX  81
$$

WIZ003>005-009-010-017-018-282000-
NORTH CENTRAL WISCONSIN

CITY           SKY/WX    TMP DP  RH WIND       PRES   REMARKS
MANITOWISH WTR PTSUNNY   79  54  41 S9G18     30.08F
ARBOR VITAE    MOSUNNY   80  53  38 SW12G21   30.09F HX  80
WOODRUFF       MOSUNNY   80  53  38 SW12G21   30.09F HX  80
RHINELANDER    MOSUNNY   81  52  36 SW12G21   30.12F HX  80
EAGLE RIVER    MOSUNNY   78  47  33 SW9G18    30.10F
LAND O LAKES   MOSUNNY   81  46  28 SW10      30.10F HX  80
PHILLIPS       MOSUNNY   80  56  43 S10G18    30.09F HX  80
TOMAHAWK       MOSUNNY   80  57  44 S6        30.11F HX  80
MEDFORD        SUNNY     78  60  54 SW8       30.12F
MERRILL        SUNNY     80  59  50 SW10G16   30.12F HX  80
$$

WIZ029-030-035-036-043>047-282000-
CENTRAL WISCONSIN

CITY           SKY/WX    TMP DP  RH WIND       PRES   REMARKS
WAUSAU         SUNNY     80  58  46 S9        30.10F HX  80
MOSINEE        MOSUNNY   77  63  61 SW7       30.14F
MARSHFIELD     MOSUNNY   82  56  40 S7G17     30.11F HX  82
STEVENS POINT  MOSUNNY   79  57  47 SW9       30.13S HX  80
WAUPACA        SUNNY     84  59  42 S6        30.13F HX  84
WAUTOMA        MOSUNNY   84  57  39 S10       30.13F HX  83
WISC RAPIDS    MOSUNNY   83  55  38 SW10      30.13F HX  82
CAMP DOUGLAS   PTSUNNY   82  61  47 SW14      30.11F HX  83
$$

WIZ011>013-019>022-031-037>040-048>050-282000-
NORTHEAST WISCONSIN

CITY           SKY/WX    TMP DP  RH WIND       PRES   REMARKS
ANTIGO         MOSUNNY   76  65  69 S13       30.14F
SHAWANO        SUNNY     81  62  52 SW6       30.13F HX  82
OCONTO         SUNNY     75  62  64 E6        30.13F
STURGEON BAY   SUNNY     73  63  68 S7        30.17F
GREEN BAY      SUNNY     80  64  58 S8        30.13F HX  82
MANITOWOC      SUNNY     68  60  75 E8        30.16F
APPLETON       MOSUNNY   81  57  44 SW8       30.14F HX  81
CLINTONVILLE   SUNNY     81  61  50 SW6       30.12F HX  81
OSHKOSH        MOSUNNY   80  60  50 S10       30.14F HX  81
$$

WIZ032>034-041-042-053>061-282000-
SOUTHWEST WISCONSIN

CITY           SKY/WX    TMP DP  RH WIND       PRES   REMARKS
LA CROSSE      SUNNY     83  59  44 S13       30.09F HX  83
SPARTA         MOSUNNY   82  54  38 S3G16     30.11F HX  81
VIROQUA        MOSUNNY   78  54  42 S13       30.14S
BOSCOBEL       MOSUNNY   82  58  43 VRB5      30.12F HX  82
PRAIRIE DU CHI MOSUNNY   80  53  39 S8        30.11F HX  80
PLATTEVILLE    SUNNY     79  56  45 S10G18    30.15F
$$

WIZ056-057-062-063-064-067-068-282000-
SOUTH CENTRAL WISCONSIN

CITY           SKY/WX    TMP DP  RH WIND       PRES   REMARKS
REEDSBURG      MOSUNNY   80  61  52 S9        30.12F HX  81
BARABOO/DELLS  MOSUNNY   79  59  49 S10       30.14S HX  80
LONE ROCK      MOSUNNY   80  58  46 S13G18    30.13F HX  80
MINERAL POINT  MOSUNNY   79  54  41 S9        30.15F
MADISON        PTSUNNY   81  57  43 S14       30.15F HX  81
MIDDLETON      MOSUNNY   81  55  40 SE9G16    30.15F HX  81
WATERTOWN      MOSUNNY  N/A N/A N/A S7        30.15F
MONROE         PTSUNNY   77  54  44 S10       30.16F
JANESVILLE     SUNNY     81  54  39 SE8       30.16F HX  80
$$

WIZ051-052-058>065-066-070>072-282000-
SOUTHEAST WISCONSIN

CITY           SKY/WX    TMP DP  RH WIND       PRES   REMARKS
MILWAUKEE      PTSUNNY   77  58  51 SE15      30.17F
WAUKESHA       MOSUNNY   79  57  47 S6        30.18F HX  80
MILWAUKEE/TIMM MOSUNNY   81  54  39 S6        30.17F HX  80
RACINE         MOSUNNY   73  57  57 SE10      30.20F
BURLINGTON     MOSUNNY   78  54  42 S8        30.17S
KENOSHA        MOSUNNY   78  59  51 SE13      30.19S
FOND DU LAC    MOSUNNY   80  62  54 S10       30.15F HX  81
SHEBOYGAN      MOSUNNY   80  60  50 S9        30.15F HX  81
WEST BEND      PTSUNNY   79  55  44 S9        30.16F
JUNEAU         MOSUNNY   78  60  53 SE9       30.16F
$$

LSZ147-162-282000-
LAKE SUPERIOR

STATION/POSITION TIME  TEMP    WIND        PRES    WAVE
                       AIR SEA DIR/SP/G            HT/PER
                 (UTC) (F)     (DEG/KT/KT) (MB)    (FT/S)
W MID LAKE BUOY  1750   39 37   40/ 16/ 17   N/A     2/ 4
DEVILS ISLAND    1800   40      50/ 10/ 12   N/A
PORT WING        1700   42      30/ 16/ 18   N/A
$$

LMZ867-665-643>646-282000-
LAKE MICHIGAN

STATION/POSITION TIME  TEMP    WIND        PRES    WAVE
                       AIR SEA DIR/SP/G            HT/PER
                 (UTC) (F)     (DEG/KT/KT) (MB)    (FT/S)
CHAMBERS ISLAND  1700   55      10/  7/  9   N/A
N MID LAKE BUOY  1650   40 37  130/  4/  6   N/A     1/ 3
NORTHPORT PIER   1700   49     140/  9/ 10   N/A
SISTER BAY       1748   71     180/ 11/ 15   N/A
ALGOMA LAKESHORE 1738             CALM       N/A
KEWAUNEE LAKESHO 1800   52     150/  2/  6   N/A
SHEBOYGAN LAKESH 1800   53     170/ 13/ 14   N/A
PORT WASHINGTON  1740   64     180/  6/  9   N/A
ATWATER BUOY     1800   56     170/ 14/ 17   N/A
MILWAUKEE LAKESH 1800          140/ 16/ 18   N/A
S MID LAKE BUOY  1750   45 39  160/  8/  8   N/A     0
KENOSHA   LAKESH 1800   59     180/ 11/ 15   N/A
$$

TC  - TEMPERATURE IN CELSIUS
VSB - VISIBILITY IN STATUTE MILES
WCI - WIND CHILL INDEX
HX  - HEAT INDEX



USA.gov is the U.S. government's official web portal to all federal, state and local government web resources and services.